CCA123 ZGGG-ZBAA

Flight info

Callsign CCA123
Flight time N/A
Altitude 3500
Route MIKIP A461 BUBDA W56 DUGEB STAR
Aircraft B777/H-SDE/L

Departure

Time 2026-05-01 09:28
Airport Guangzhou Baiyun International Airport (ZGGG)

Arrival

Time N/A
Airport Beijing Capital International Airport (ZBAA)
Time Latitude Longitude Altitude Speed Heading
2026-05-01 08:58 23.40096 113.32033 63 ft 0 kts 284°
2026-05-01 09:06 23.40093 113.32044 63 ft 2 kts 284°
2026-05-01 09:07 23.40089 113.32063 63 ft 3 kts 284°
2026-05-01 09:07 23.40084 113.32084 63 ft 3 kts 284°
2026-05-01 09:07 23.40079 113.32106 63 ft 3 kts 284°
2026-05-01 09:07 23.40076 113.32117 63 ft 0 kts 284°
2026-05-01 09:11 23.40073 113.32093 63 ft 7 kts 238°
2026-05-01 09:11 23.39979 113.32052 63 ft 22 kts 196°
2026-05-01 09:12 23.39871 113.32017 63 ft 15 kts 197°
2026-05-01 09:12 23.39796 113.31996 63 ft 7 kts 172°
2026-05-01 09:12 23.39748 113.32016 63 ft 9 kts 158°
2026-05-01 09:12 23.39701 113.32037 63 ft 7 kts 152°
2026-05-01 09:13 23.39658 113.32039 63 ft 7 kts 225°
2026-05-01 09:13 23.39650 113.32019 63 ft 0 kts 259°
2026-05-01 09:13 23.39649 113.31994 63 ft 6 kts 273°
2026-05-01 09:13 23.39664 113.31925 63 ft 5 kts 288°
2026-05-01 09:14 23.39669 113.31909 63 ft 2 kts 288°
2026-05-01 09:14 23.39673 113.31896 63 ft 0 kts 289°
2026-05-01 09:16 23.39678 113.31881 63 ft 8 kts 289°
2026-05-01 09:16 23.39650 113.31808 63 ft 13 kts 222°
2026-05-01 09:17 23.39574 113.31690 63 ft 11 kts 205°
2026-05-01 09:17 23.39506 113.31662 63 ft 6 kts 196°
2026-05-01 09:17 23.39383 113.31631 63 ft 4 kts 191°
2026-05-01 09:18 23.39316 113.31616 63 ft 19 kts 192°
2026-05-01 09:18 23.39076 113.31551 63 ft 17 kts 195°
2026-05-01 09:19 23.38891 113.31499 63 ft 11 kts 193°
2026-05-01 09:19 23.38788 113.31471 63 ft 18 kts 194°
2026-05-01 09:19 23.38671 113.31439 63 ft 17 kts 194°
2026-05-01 09:20 23.38456 113.31375 63 ft 17 kts 195°
2026-05-01 09:20 23.38043 113.31274 63 ft 41 kts 193°
2026-05-01 09:21 23.37600 113.31152 63 ft 28 kts 195°
2026-05-01 09:21 23.37422 113.31095 63 ft 25 kts 197°
2026-05-01 09:21 23.37190 113.31038 63 ft 12 kts 189°
2026-05-01 09:22 23.37034 113.31006 63 ft 11 kts 192°
2026-05-01 09:22 23.36934 113.30936 63 ft 1 kts 268°
2026-05-01 09:23 23.36933 113.30931 63 ft 0 kts 268°
2026-05-01 09:26 23.36933 113.30907 63 ft 6 kts 269°
2026-05-01 09:26 23.36949 113.30805 63 ft 5 kts 297°
2026-05-01 09:26 23.36976 113.30775 63 ft 11 kts 331°
2026-05-01 09:27 23.37033 113.30779 63 ft 0 kts 17°
2026-05-01 09:27 23.37130 113.30812 63 ft 47 kts 16°
2026-05-01 09:27 23.37693 113.30971 63 ft 119 kts 14°
2026-05-01 09:28 23.38714 113.31241 67 ft 179 kts 13°
2026-05-01 09:28 23.40022 113.31577 325 ft 199 kts 12°
2026-05-01 09:28 23.41302 113.31847 1258 ft 187 kts 11°
2026-05-01 09:28 23.42630 113.32179 1784 ft 204 kts 13°
2026-05-01 09:29 23.45418 113.33101 2948 ft 210 kts 18°
2026-05-01 09:29 23.46791 113.33598 3562 ft 199 kts 16°
2026-05-01 09:30 23.49506 113.34307 4474 ft 204 kts 12°
2026-05-01 09:30 23.50904 113.34480 4977 ft 205 kts
2026-05-01 09:30 23.53723 113.34882 5879 ft 205 kts
2026-05-01 09:31 23.55173 113.35130 6089 ft 219 kts 10°
2026-05-01 09:31 23.56736 113.35366 6359 ft 228 kts
2026-05-01 09:31 23.60054 113.34927 6602 ft 270 kts 356°
2026-05-01 09:32 23.62002 113.34708 6814 ft 291 kts 355°
2026-05-01 09:32 23.65875 113.34975 8050 ft 300 kts
2026-05-01 09:32 23.67892 113.35340 8879 ft 296 kts 10°
2026-05-01 09:33 23.69908 113.35726 9774 ft 290 kts
2026-05-01 09:33 23.71892 113.36064 10623 ft 285 kts
2026-05-01 09:33 23.75933 113.36614 11470 ft 307 kts
2026-05-01 09:34 23.78119 113.36854 11724 ft 323 kts
2026-05-01 09:34 23.80375 113.37081 12041 ft 337 kts
2026-05-01 09:34 23.85190 113.37536 13006 ft 351 kts
2026-05-01 09:35 23.87640 113.37762 13665 ft 354 kts
2026-05-01 09:35 23.92596 113.38212 14936 ft 361 kts
2026-05-01 09:35 23.94266 113.38363 15343 ft 363 kts
2026-05-01 09:36 23.96793 113.38591 15952 ft 366 kts
2026-05-01 09:36 24.00181 113.38896 16743 ft 371 kts
2026-05-01 09:36 24.01930 113.39053 17141 ft 373 kts
2026-05-01 09:36 24.04531 113.39286 17718 ft 376 kts
2026-05-01 09:37 24.07119 113.39518 18275 ft 379 kts
2026-05-01 09:37 24.12420 113.39995 19376 ft 386 kts
2026-05-01 09:37 24.15107 113.40238 19766 ft 388 kts
2026-05-01 09:38 24.20500 113.40725 19809 ft 389 kts
2026-05-01 09:38 24.22956 113.40947 20028 ft 392 kts
2026-05-01 09:38 24.25685 113.41194 20590 ft 395 kts
2026-05-01 09:39 24.31198 113.41692 21662 ft 399 kts
2026-05-01 09:39 24.33973 113.41941 22155 ft 402 kts
2026-05-01 09:39 24.36785 113.42169 22643 ft 405 kts
2026-05-01 09:40 24.39548 113.42285 23110 ft 408 kts
2026-05-01 09:40 24.45297 113.42380 24051 ft 414 kts
2026-05-01 09:40 24.48193 113.42433 24509 ft 417 kts
2026-05-01 09:41 24.51109 113.42497 24947 ft 420 kts
2026-05-01 09:41 24.56973 113.42647 25128 ft 422 kts
2026-05-01 09:41 24.59923 113.42727 25485 ft 425 kts
2026-05-01 09:42 24.62884 113.42809 25928 ft 427 kts
2026-05-01 09:42 24.65831 113.42892 26375 ft 429 kts
2026-05-01 09:42 24.71854 113.43061 27202 ft 435 kts
2026-05-01 09:43 24.77949 113.43233 28005 ft 440 kts
2026-05-01 09:43 24.81024 113.43320 28396 ft 443 kts
2026-05-01 09:43 24.84119 113.43408 28775 ft 446 kts
2026-05-01 09:44 24.90361 113.43585 29533 ft 451 kts
2026-05-01 09:44 24.93462 113.43673 29682 ft 453 kts
2026-05-01 09:45 24.99777 113.43852 29707 ft 453 kts
2026-05-01 09:45 25.06100 113.44032 30238 ft 455 kts
2026-05-01 09:45 25.09268 113.44122 30746 ft 453 kts
2026-05-01 09:46 25.12424 113.44212 31209 ft 452 kts
2026-05-01 09:46 25.15526 113.44301 31621 ft 451 kts
2026-05-01 09:46 25.18665 113.44390 32029 ft 450 kts
2026-05-01 09:46 25.21796 113.44480 32357 ft 451 kts
2026-05-01 09:47 25.28077 113.44660 32423 ft 451 kts
2026-05-01 09:47 25.31236 113.44750 32593 ft 455 kts
2026-05-01 09:47 25.34408 113.44841 32897 ft 455 kts
2026-05-01 09:48 25.37581 113.44932 33241 ft 455 kts
2026-05-01 09:48 25.40745 113.45023 33556 ft 455 kts
2026-05-01 09:48 25.43909 113.45114 33832 ft 456 kts
2026-05-01 09:48 25.47092 113.45206 34072 ft 457 kts
2026-05-01 09:49 25.50281 113.45297 34282 ft 459 kts
2026-05-01 09:49 25.53491 113.45390 34372 ft 461 kts
2026-05-01 09:49 25.59779 113.45571 34407 ft 450 kts
2026-05-01 09:50 25.66048 113.45752 34594 ft 453 kts
2026-05-01 09:50 25.72428 113.45938 34820 ft 461 kts
2026-05-01 09:51 25.75646 113.46032 34972 ft 464 kts
2026-05-01 09:51 25.78883 113.46126 35131 ft 466 kts
2026-05-01 09:51 25.82126 113.46221 35292 ft 468 kts
2026-05-01 09:51 25.85396 113.46313 35458 ft 469 kts
2026-05-01 09:52 25.88623 113.46502 35621 ft 471 kts
2026-05-01 09:52 25.91892 113.46876 35784 ft 472 kts
2026-05-01 09:52 25.95164 113.47371 35946 ft 473 kts
2026-05-01 09:52 25.98424 113.47937 35992 ft 473 kts
2026-05-01 09:53 26.01628 113.48524 36002 ft 459 kts
2026-05-01 09:53 26.04747 113.49087 36000 ft 449 kts
2026-05-01 09:53 26.10823 113.50134 36001 ft 443 kts
2026-05-01 09:54 26.16999 113.51157 35992 ft 454 kts
2026-05-01 09:54 26.23328 113.52186 35968 ft 465 kts
2026-05-01 09:55 26.29787 113.53224 36108 ft 472 kts
2026-05-01 09:55 26.33042 113.53748 36214 ft 474 kts
2026-05-01 09:55 26.36321 113.54276 36323 ft 476 kts
2026-05-01 09:56 26.42842 113.55327 36397 ft 464 kts
2026-05-01 09:56 26.46007 113.55838 36398 ft 453 kts
2026-05-01 09:56 26.49109 113.56339 36399 ft 448 kts
2026-05-01 09:57 26.55235 113.57329 36401 ft 451 kts
2026-05-01 09:57 26.61530 113.58347 36401 ft 461 kts
2026-05-01 09:58 26.67946 113.59386 36401 ft 471 kts
2026-05-01 09:58 26.74483 113.60445 36401 ft 475 kts
2026-05-01 09:59 26.77715 113.60969 36398 ft 463 kts
2026-05-01 09:59 26.80865 113.61481 36397 ft 453 kts
2026-05-01 09:59 26.87047 113.62485 36399 ft 444 kts
2026-05-01 10:00 26.93220 113.63489 36292 ft 457 kts
2026-05-01 10:00 26.99589 113.64526 36279 ft 467 kts
2026-05-01 10:01 27.06083 113.65585 36400 ft 474 kts
2026-05-01 10:01 27.12646 113.66656 36598 ft 478 kts
2026-05-01 10:02 27.15951 113.67196 36704 ft 480 kts
2026-05-01 10:02 27.19219 113.67730 36791 ft 479 kts
2026-05-01 10:02 27.22491 113.68265 36799 ft 467 kts
2026-05-01 10:02 27.25663 113.68784 36801 ft 457 kts
2026-05-01 10:03 27.31909 113.69808 36800 ft 450 kts
2026-05-01 10:03 27.38148 113.70831 36700 ft 462 kts
2026-05-01 10:04 27.44598 113.71890 36685 ft 472 kts
2026-05-01 10:04 27.45698 113.72070 36693 ft 473 kts